M I D A S
Marine Information and Data Acquisition System
Tripno 1476 of the Zeeleeuw from 2008-02-19 07:49:17 to 2008-02-19 15:36:32
Back to CruiseResearch ActivitiesStationsMapUnderway DataData graphs

EquipmentUnitsComments
TimeDGPSUTC
LatitudeDGPSDM.mWGS84
LongitudeDGPSDM.mWGS84
SpeedMeteo Stationm/sRelative wind speed
DirectionMeteo StationdegRelative wind direction
TemperatureMeteo Stationdeg CelciusAir temperature
PressureMeteo StationPaAtmospheric pressure
HumidityMeteo Station%Relative humidity
Missing or incorrect values are displayed as -999
Metereological data collected by the RV Zeeleeuw from 2008-02-19 07:51:23 to 2008-02-19 15:38:05
                                                                                    Next 1000 lines
Time Latitude Longitude Speed Direction Temperature Pressure Humidity
2008-02-19 07:51:33 51°13.663 2°55.952 2.1 327 -1.3 102710 100
2008-02-19 07:51:38 51°13.664 2°55.95 1.8 335 -1.3 102710 100
2008-02-19 07:51:43 51°13.664 2°55.948 2 324 -1.3 102720 100
2008-02-19 07:51:48 51°13.665 2°55.944 1.6 346 -1.3 102720 100
2008-02-19 07:51:53 51°13.665 2°55.94 1.8 335 -1.3 102720 100
2008-02-19 07:51:58 51°13.667 2°55.935 1.7 344 -1.3 102720 100
2008-02-19 07:52:04 51°13.668 2°55.928 1.6 339 -1.3 102710 100
2008-02-19 07:52:09 51°13.669 2°55.921 1.1 354 -1.3 102710 100
2008-02-19 07:52:14 51°13.67 2°55.914 0.9 343 -1.3 102710 100
2008-02-19 07:52:19 51°13.671 2°55.906 0.4 345 -1.3 102710 100
2008-02-19 07:52:24 51°13.672 2°55.897 0.4 10 -1.3 102720 100
2008-02-19 07:52:29 51°13.674 2°55.889 0.2 2 -1.3 102720 100
2008-02-19 07:52:34 51°13.675 2°55.879 0.2 2 -1.3 102720 100
2008-02-19 07:52:39 51°13.677 2°55.87 0.2 359 -1.3 102720 100
2008-02-19 07:52:44 51°13.678 2°55.861 0.3 359 -1.3 102720 100
2008-02-19 07:52:49 51°13.68 2°55.852 0.1 358 -1.3 102720 100
2008-02-19 07:52:54 51°13.681 2°55.844 0.1 355 -1.3 102720 100
2008-02-19 07:52:59 51°13.682 2°55.835 0.7 327 -1.3 102720 100
2008-02-19 07:53:04 51°13.683 2°55.826 1 22 -1.3 102720 100
2008-02-19 07:53:09 51°13.684 2°55.817 1 338 -1.3 102720 100
2008-02-19 07:53:14 51°13.686 2°55.809 1 334 -1.2 102720 100
2008-02-19 07:53:19 51°13.687 2°55.8 1.2 327 -1.2 102720 100
2008-02-19 07:53:24 51°13.688 2°55.792 1.1 332 -1.2 102720 100
2008-02-19 07:53:29 51°13.689 2°55.784 0.8 341 -1.2 102720 100
2008-02-19 07:53:34 51°13.689 2°55.776 1 280 -1.2 102720 100
2008-02-19 07:53:39 51°13.69 2°55.768 0.9 337 -1.2 102720 100
2008-02-19 07:53:44 51°13.691 2°55.761 1.3 355 -1.2 102720 100
2008-02-19 07:53:49 51°13.691 2°55.754 1.8 355 -1.2 102720 100
2008-02-19 07:53:54 51°13.691 2°55.747 1.4 354 -1.2 102710 100
2008-02-19 07:53:58 51°13.692 2°55.742 1.7 347 -1.2 102710 100
2008-02-19 07:54:04 51°13.692 2°55.735 1.4 282 -1.2 102720 100
2008-02-19 07:54:09 51°13.692 2°55.73 2.4 333 -1.2 102720 100
2008-02-19 07:54:14 51°13.692 2°55.726 2.7 284 -1.2 102710 100
2008-02-19 07:54:18 51°13.692 2°55.723 2.8 345 -1.2 102710 100
2008-02-19 07:54:23 51°13.692 2°55.72 3.6 282 -1.2 102710 100
2008-02-19 07:54:28 51°13.692 2°55.718 3.3 355 -1.2 102710 100
2008-02-19 07:54:33 51°13.693 2°55.716 2.3 283 -1.2 102710 100
2008-02-19 07:54:38 51°13.693 2°55.715 2.5 351 -1.2 102710 100
2008-02-19 07:54:43 51°13.693 2°55.715 3.1 -999 -1.2 102710 100
2008-02-19 07:54:48 51°13.694 2°55.714 2.7 358 -1.2 102710 100
2008-02-19 07:54:53 51°13.695 2°55.714 2.6 358 -1.2 102710 100
2008-02-19 07:54:58 51°13.695 2°55.715 2.7 353 -1.2 102710 100
2008-02-19 07:55:03 51°13.696 2°55.715 3.5 357 -1.2 102710 100
2008-02-19 07:55:09 51°13.698 2°55.716 2.3 3 -1.2 102710 100
2008-02-19 07:55:14 51°13.7 2°55.717 2.6 5 -1.2 102710 100
2008-02-19 07:55:18 51°13.701 2°55.718 2.5 6 -1.2 102710 100
2008-02-19 07:55:23 51°13.704 2°55.719 2.8 9 -1.2 102710 100
2008-02-19 07:55:28 51°13.708 2°55.72 3.4 10 -1.2 102710 100
2008-02-19 07:55:33 51°13.713 2°55.721 3.5 7 -1.2 102710 100
2008-02-19 07:55:38 51°13.718 2°55.721 3.2 10 -1.2 102710 100
2008-02-19 07:55:43 51°13.723 2°55.719 2.8 18 -1.2 102710 100
2008-02-19 07:55:48 51°13.729 2°55.716 2.5 17 -1.2 102710 100
2008-02-19 07:55:53 51°13.736 2°55.712 2.7 17 -1.2 102710 100
2008-02-19 07:55:58 51°13.743 2°55.706 2.8 11 -1.2 102710 100
2008-02-19 07:56:02 51°13.75 2°55.702 2.5 358 -1.2 102710 100
2008-02-19 07:56:07 51°13.759 2°55.695 2.7 350 -1.2 102710 100
2008-02-19 07:56:12 51°13.767 2°55.689 2.6 356 -1.1 102710 100
2008-02-19 07:56:17 51°13.776 2°55.682 2.6 343 -1.1 102710 100
2008-02-19 07:56:22 51°13.785 2°55.674 2.6 351 -1.1 102710 100
2008-02-19 07:56:27 51°13.795 2°55.666 2.6 359 -1.1 102710 100
2008-02-19 07:56:32 51°13.805 2°55.658 3.2 8 -1.2 102710 100
2008-02-19 07:56:37 51°13.814 2°55.65 2.3 353 -1.2 102710 100
2008-02-19 07:56:42 51°13.824 2°55.642 2.6 346 -1.1 102710 100
2008-02-19 07:56:47 51°13.834 2°55.634 3.4 344 -1.1 102710 100
2008-02-19 07:56:52 51°13.844 2°55.626 3.3 344 -1.1 102710 100
2008-02-19 07:56:57 51°13.855 2°55.618 3.4 358 -1.1 102710 100
2008-02-19 07:57:02 51°13.866 2°55.61 3 357 -1.2 102710 100
2008-02-19 07:57:07 51°13.875 2°55.603 2.1 5 -1.2 102710 100
2008-02-19 07:57:11 51°13.883 2°55.598 1.7 353 -1.2 102710 100
2008-02-19 07:57:17 51°13.894 2°55.589 2.3 352 -1.2 102710 100
2008-02-19 07:57:21 51°13.901 2°55.584 2 347 -1.2 102710 100
2008-02-19 07:57:26 51°13.91 2°55.578 2.6 355 -1.2 102710 100
2008-02-19 07:57:31 51°13.918 2°55.571 2.5 8 -1.2 102710 100
2008-02-19 07:57:36 51°13.926 2°55.565 1.5 11 -1.2 102710 100
2008-02-19 07:57:41 51°13.935 2°55.558 2.7 13 -1.2 102710 100
2008-02-19 07:57:46 51°13.944 2°55.553 2.4 14 -1.2 102710 100
2008-02-19 07:57:51 51°13.952 2°55.547 2.8 20 -1.2 102710 100
2008-02-19 07:57:56 51°13.959 2°55.542 3.2 21 -1.2 102710 100
2008-02-19 07:58:01 51°13.967 2°55.537 3.1 9 -1.2 102710 100
2008-02-19 07:58:06 51°13.974 2°55.532 3.4 18 -1.2 102710 100
2008-02-19 07:58:10 51°13.979 2°55.528 4.2 17 -1.2 102710 100
2008-02-19 07:58:15 51°13.986 2°55.523 4 28 -1.2 102710 100
2008-02-19 07:58:20 51°13.992 2°55.518 3.3 26 -1.2 102710 100
2008-02-19 07:58:25 51°13.999 2°55.513 3.9 19 -1.2 102710 100
2008-02-19 07:58:30 51°14.005 2°55.508 3.8 20 -1.1 102710 100
2008-02-19 07:58:35 51°14.012 2°55.503 3.9 17 -1.1 102710 100
2008-02-19 07:58:40 51°14.018 2°55.499 4.6 20 -1.1 102710 100
2008-02-19 07:58:45 51°14.024 2°55.494 3.8 24 -1.1 102710 100
2008-02-19 07:58:50 51°14.031 2°55.49 3.8 26 -1.1 102710 100
2008-02-19 07:58:55 51°14.038 2°55.485 3 22 -1.1 102710 100
2008-02-19 07:59:00 51°14.044 2°55.48 3.1 27 -1.1 102710 100
2008-02-19 07:59:05 51°14.05 2°55.475 2.6 31 -1.1 102710 100
2008-02-19 07:59:10 51°14.056 2°55.47 3.7 23 -1.1 102710 100
2008-02-19 07:59:15 51°14.063 2°55.466 3.2 32 -1.1 102710 100
2008-02-19 07:59:21 51°14.07 2°55.46 3.3 25 -1.1 102710 100
2008-02-19 07:59:26 51°14.076 2°55.455 2.8 19 -1.1 102710 100
2008-02-19 07:59:31 51°14.082 2°55.449 2.2 25 -1.1 102710 100
2008-02-19 07:59:36 51°14.088 2°55.444 2.4 18 -1.1 102710 100
2008-02-19 07:59:41 51°14.095 2°55.439 2.3 12 -1.1 102700 100
2008-02-19 07:59:46 51°14.102 2°55.433 2.6 24 -1.1 102700 100
2008-02-19 07:59:51 51°14.109 2°55.426 2.4 20 -1.1 102700 100
2008-02-19 07:59:56 51°14.117 2°55.419 2.1 25 -1.1 102700 100
2008-02-19 08:00:01 51°14.125 2°55.412 1.9 5 -1.1 102700 100
2008-02-19 08:00:06 51°14.134 2°55.405 2.2 2 -1.1 102700 100
2008-02-19 08:00:10 51°14.141 2°55.398 2.1 359 -1.1 102700 100
2008-02-19 08:00:15 51°14.151 2°55.39 3 348 -1.1 102700 100
2008-02-19 08:00:20 51°14.16 2°55.38 2.8 351 -1.1 102700 100
2008-02-19 08:00:26 51°14.171 2°55.368 3.1 353 -1.1 102700 100
2008-02-19 08:00:30 51°14.179 2°55.359 2.9 353 -1.1 102700 100
2008-02-19 08:00:35 51°14.189 2°55.347 2.9 353 -1.1 102700 100
2008-02-19 08:00:40 51°14.199 2°55.335 3.2 288 -1.1 102700 100
2008-02-19 08:00:45 51°14.209 2°55.322 3.6 343 -1.1 102700 100
2008-02-19 08:00:50 51°14.219 2°55.309 3.2 280 -1.1 102710 100
2008-02-19 08:00:55 51°14.229 2°55.295 4.2 354 -1.1 102710 100
2008-02-19 08:01:00 51°14.239 2°55.281 3.2 350 -1.1 102700 100
2008-02-19 08:01:05 51°14.249 2°55.266 2.2 360 -1.1 102700 100
2008-02-19 08:01:10 51°14.258 2°55.251 2.7 356 -1.1 102700 100
2008-02-19 08:01:15 51°14.268 2°55.235 3.5 351 -1.1 102700 100
2008-02-19 08:01:20 51°14.277 2°55.218 2.8 2 -1.1 102700 100
2008-02-19 08:01:25 51°14.286 2°55.201 3.1 3 -1.1 102700 100
2008-02-19 08:01:30 51°14.295 2°55.183 2.6 -999 -1.1 102700 100
2008-02-19 08:01:35 51°14.304 2°55.164 2.7 4 -1.1 102700 100
2008-02-19 08:01:40 51°14.312 2°55.146 2.5 4 -1.1 102700 100
2008-02-19 08:01:45 51°14.321 2°55.127 2.4 358 -1.1 102700 100
2008-02-19 08:01:50 51°14.33 2°55.108 2.7 354 -1.1 102700 100
2008-02-19 08:01:55 51°14.338 2°55.089 2.8 350 -1.1 102700 100
2008-02-19 08:02:00 51°14.347 2°55.069 2.5 282 -1.1 102710 100
2008-02-19 08:02:05 51°14.355 2°55.049 2.2 347 -1.1 102710 100
2008-02-19 08:02:10 51°14.363 2°55.028 2.5 3 -1.1 102700 100
2008-02-19 08:02:15 51°14.371 2°55.007 2.7 1 -1.1 102700 100
2008-02-19 08:02:20 51°14.379 2°54.986 2.4 356 -1.1 102700 100
2008-02-19 08:02:25 51°14.386 2°54.964 2.2 356 -1.1 102700 100
2008-02-19 08:02:30 51°14.393 2°54.942 2.6 353 -1.1 102710 100
2008-02-19 08:02:35 51°14.401 2°54.919 2.5 353 -1.1 102710 100
2008-02-19 08:02:40 51°14.408 2°54.897 2.8 357 -1.1 102710 100
2008-02-19 08:02:45 51°14.415 2°54.873 2.8 358 -1.1 102710 100
2008-02-19 08:02:50 51°14.423 2°54.851 2.4 359 -1.1 102710 100
2008-02-19 08:02:55 51°14.43 2°54.828 2.6 357 -1.1 102710 100
2008-02-19 08:03:00 51°14.438 2°54.805 3.1 358 -1 102710 100
2008-02-19 08:03:04 51°14.444 2°54.787 2.5 2 -1 102710 100
2008-02-19 08:03:10 51°14.454 2°54.76 2.3 358 -1 102710 100
2008-02-19 08:03:15 51°14.463 2°54.738 3 358 -1 102710 100
2008-02-19 08:03:20 51°14.473 2°54.716 3.1 -999 -1 102710 100
2008-02-19 08:03:25 51°14.482 2°54.694 3.2 -999 -1 102710 100
2008-02-19 08:03:30 51°14.492 2°54.672 3.4 3 -1 102710 100
2008-02-19 08:03:35 51°14.502 2°54.65 3.4 3 -1 102710 100
2008-02-19 08:03:40 51°14.512 2°54.628 2.5 7 -1 102700 100
2008-02-19 08:03:45 51°14.522 2°54.606 3.3 1 -1 102700 100
2008-02-19 08:03:50 51°14.532 2°54.584 3.4 359 -1 102700 100
2008-02-19 08:03:55 51°14.542 2°54.561 3.9 3 -1 102700 100
2008-02-19 08:04:00 51°14.552 2°54.539 4.2 358 -1 102700 100
2008-02-19 08:04:05 51°14.562 2°54.517 3.7 358 -1 102700 100
2008-02-19 08:04:10 51°14.571 2°54.494 4 359 -1 102700 100
2008-02-19 08:04:15 51°14.581 2°54.472 4 358 -1 102700 100
2008-02-19 08:04:20 51°14.591 2°54.449 3.2 360 -1 102700 100
2008-02-19 08:04:25 51°14.6 2°54.426 3.1 358 -1 102700 100
2008-02-19 08:04:30 51°14.607 2°54.401 3.4 359 -1 102700 100
2008-02-19 08:04:35 51°14.614 2°54.376 2.9 6 -1 102700 100
2008-02-19 08:04:40 51°14.621 2°54.351 2.7 6 -1 102700 100
2008-02-19 08:04:45 51°14.626 2°54.325 2.6 7 -1 102700 100
2008-02-19 08:04:50 51°14.633 2°54.299 2.8 6 -1 102700 100
2008-02-19 08:04:55 51°14.637 2°54.272 2.4 11 -1 102700 100
2008-02-19 08:05:00 51°14.641 2°54.246 2.5 10 -0.9 102700 100
2008-02-19 08:05:05 51°14.646 2°54.219 1.9 8 -0.9 102700 100
2008-02-19 08:05:10 51°14.649 2°54.192 2.2 9 -0.9 102690 100
2008-02-19 08:05:15 51°14.654 2°54.165 2.1 7 -0.9 102690 100
2008-02-19 08:05:20 51°14.658 2°54.138 2 1 -0.9 102700 100
2008-02-19 08:05:25 51°14.664 2°54.112 2.3 2 -0.9 102700 100
2008-02-19 08:05:30 51°14.67 2°54.085 2.3 1 -0.9 102700 100
2008-02-19 08:05:35 51°14.676 2°54.06 2.4 7 -0.9 102700 100
2008-02-19 08:05:40 51°14.682 2°54.036 2.8 13 -0.9 102700 100
2008-02-19 08:05:45 51°14.687 2°54.013 3 12 -0.9 102700 100
2008-02-19 08:05:50 51°14.692 2°53.993 3.4 19 -0.9 102700 100
2008-02-19 08:05:55 51°14.697 2°53.974 4 17 -0.9 102700 100
2008-02-19 08:06:00 51°14.701 2°53.957 4 21 -0.9 102690 100
2008-02-19 08:06:05 51°14.707 2°53.942 4.2 23 -0.9 102690 100
2008-02-19 08:06:10 51°14.712 2°53.927 4.7 24 -1 102700 100
2008-02-19 08:06:15 51°14.717 2°53.914 4.5 21 -1 102700 100
2008-02-19 08:06:20 51°14.721 2°53.903 4.7 23 -0.9 102690 100
2008-02-19 08:06:25 51°14.726 2°53.893 5.1 19 -0.9 102690 100
2008-02-19 08:06:30 51°14.731 2°53.883 5.2 21 -0.9 102690 100
2008-02-19 08:06:35 51°14.736 2°53.875 5.4 19 -0.9 102690 100
2008-02-19 08:06:40 51°14.74 2°53.867 5.9 22 -0.9 102690 100
2008-02-19 08:06:45 51°14.744 2°53.86 5.6 24 -0.9 102690 100
2008-02-19 08:06:50 51°14.748 2°53.854 5.1 23 -0.9 102690 100
2008-02-19 08:06:55 51°14.752 2°53.848 5.9 17 -0.9 102690 100
2008-02-19 08:07:00 51°14.756 2°53.843 5.8 18 -0.9 102690 100
2008-02-19 08:07:05 51°14.76 2°53.838 5.3 20 -0.9 102690 100
2008-02-19 08:07:10 51°14.764 2°53.834 5.9 19 -0.9 102690 100
2008-02-19 08:07:15 51°14.768 2°53.829 6 19 -0.9 102690 100
2008-02-19 08:07:20 51°14.771 2°53.826 6.3 19 -0.9 102690 100
2008-02-19 08:07:25 51°14.774 2°53.822 6.3 18 -0.9 102690 100
2008-02-19 08:07:30 51°14.778 2°53.818 5.7 21 -0.9 102690 100
2008-02-19 08:07:35 51°14.781 2°53.815 5.7 20 -0.9 102690 100
2008-02-19 08:07:40 51°14.784 2°53.811 6.1 24 -0.9 102690 100
2008-02-19 08:07:45 51°14.787 2°53.808 6.3 23 -0.9 102690 100
2008-02-19 08:07:50 51°14.789 2°53.805 6.4 22 -0.9 102680 100
2008-02-19 08:07:55 51°14.792 2°53.802 5.7 20 -0.9 102680 100
2008-02-19 08:08:00 51°14.795 2°53.799 5.4 16 -0.9 102690 100
2008-02-19 08:08:05 51°14.797 2°53.797 5.2 16 -0.9 102690 100
2008-02-19 08:08:10 51°14.8 2°53.794 5.9 16 -1 102690 100
2008-02-19 08:08:15 51°14.802 2°53.792 6.3 22 -1 102690 100
2008-02-19 08:08:20 51°14.804 2°53.789 6.5 21 -1 102690 100
2008-02-19 08:08:25 51°14.806 2°53.787 6 18 -1 102690 100
2008-02-19 08:08:30 51°14.808 2°53.785 6.4 19 -1 102690 100
2008-02-19 08:08:35 51°14.81 2°53.782 6.1 22 -1 102690 100
2008-02-19 08:08:40 51°14.812 2°53.78 6.6 20 -0.9 102680 100
2008-02-19 08:08:45 51°14.814 2°53.778 6.5 21 -0.9 102680 100
2008-02-19 08:08:50 51°14.816 2°53.776 6.2 21 -0.9 102690 100
2008-02-19 08:08:55 51°14.818 2°53.774 5.8 21 -0.9 102690 100
2008-02-19 08:09:00 51°14.82 2°53.772 5.7 21 -0.9 102690 100
2008-02-19 08:09:05 51°14.821 2°53.77 5.3 21 -0.9 102690 100
2008-02-19 08:09:10 51°14.823 2°53.768 5.3 18 -0.8 102690 100
2008-02-19 08:09:15 51°14.824 2°53.766 7.5 12 -0.8 102690 100
2008-02-19 08:09:20 51°14.826 2°53.764 6.8 10 -0.9 102690 100
2008-02-19 08:09:25 51°14.827 2°53.763 7.4 14 -0.9 102690 100
2008-02-19 08:09:30 51°14.829 2°53.761 7 16 -0.9 102690 100
2008-02-19 08:09:35 51°14.829 2°53.76 6.5 15 -0.9 102690 100
2008-02-19 08:09:40 51°14.83 2°53.758 6.2 17 -0.9 102690 100
2008-02-19 08:09:45 51°14.829 2°53.757 6.8 18 -0.9 102690 100
2008-02-19 08:09:50 51°14.829 2°53.755 6.7 19 -0.9 102690 100
2008-02-19 08:09:55 51°14.827 2°53.754 6.3 24 -0.9 102690 100
2008-02-19 08:10:00 51°14.825 2°53.752 6.1 24 -0.9 102690 100
2008-02-19 08:10:05 51°14.823 2°53.751 6.6 22 -0.9 102690 100
2008-02-19 08:10:10 51°14.82 2°53.75 6.6 24 -0.9 102690 100
2008-02-19 08:10:15 51°14.816 2°53.749 6.1 25 -0.9 102690 100
2008-02-19 08:10:21 51°14.812 2°53.748 5.8 25 -0.9 102690 100
2008-02-19 08:10:27 51°14.807 2°53.747 6.5 28 -0.9 102690 100
2008-02-19 08:10:33 51°14.802 2°53.747 6.6 30 -0.9 102690 100
2008-02-19 08:10:38 51°14.797 2°53.747 6.2 33 -0.9 102690 100
2008-02-19 08:10:44 51°14.791 2°53.748 6.7 34 -1 102680 100
2008-02-19 08:10:49 51°14.786 2°53.748 6.3 36 -1 102680 100
2008-02-19 08:10:54 51°14.781 2°53.749 6.8 31 -1 102680 100
2008-02-19 08:10:59 51°14.776 2°53.75 6.6 33 -1 102680 100
2008-02-19 08:11:04 51°14.771 2°53.751 8 32 -1 102680 100
2008-02-19 08:11:09 51°14.766 2°53.751 7.1 32 -1 102680 100
2008-02-19 08:11:14 51°14.761 2°53.753 7.1 32 -1 102680 100
2008-02-19 08:11:18 51°14.758 2°53.753 7.1 31 -1 102680 100
2008-02-19 08:11:24 51°14.754 2°53.753 7 33 -1 102670 100
2008-02-19 08:11:29 51°14.752 2°53.752 7.4 31 -1 102670 100
2008-02-19 08:11:33 51°14.75 2°53.752 7.4 27 -1 102670 100
2008-02-19 08:11:38 51°14.749 2°53.75 6.8 25 -1 102670 100
2008-02-19 08:11:43 51°14.749 2°53.749 6.9 23 -1 102680 100
2008-02-19 08:11:48 51°14.749 2°53.747 6.7 20 -1 102680 100
2008-02-19 08:11:53 51°14.751 2°53.745 6.6 20 -1 102680 100
2008-02-19 08:11:58 51°14.753 2°53.743 7.8 17 -1 102680 100
2008-02-19 08:12:03 51°14.756 2°53.742 8 14 -1 102680 100
2008-02-19 08:12:08 51°14.759 2°53.742 7.3 13 -1 102680 100
2008-02-19 08:12:13 51°14.763 2°53.742 5.8 6 -1 102680 100
2008-02-19 08:12:18 51°14.766 2°53.743 6 360 -1 102680 100
2008-02-19 08:12:23 51°14.77 2°53.745 7 357 -1 102680 100
2008-02-19 08:12:27 51°14.774 2°53.748 7 356 -1 102680 100
2008-02-19 08:12:32 51°14.778 2°53.752 7.6 347 -1.1 102680 100
2008-02-19 08:12:37 51°14.781 2°53.758 8 345 -1.1 102680 100
2008-02-19 08:12:42 51°14.784 2°53.764 9.4 283 -1 102680 100
2008-02-19 08:12:47 51°14.787 2°53.77 8.9 342 -1 102680 100
2008-02-19 08:12:52 51°14.79 2°53.776 7.5 282 -1.1 102680 100
2008-02-19 08:12:57 51°14.792 2°53.782 8.1 340 -1.1 102680 100
2008-02-19 08:13:02 51°14.794 2°53.788 7.4 281 -1.1 102680 100
2008-02-19 08:13:07 51°14.795 2°53.794 8.4 342 -1.1 102680 100
2008-02-19 08:13:12 51°14.796 2°53.799 6.7 282 -1.1 102680 100
2008-02-19 08:13:16 51°14.797 2°53.804 8 336 -1.1 102680 100
2008-02-19 08:13:22 51°14.798 2°53.81 8.1 286 -1.1 102680 100
2008-02-19 08:13:26 51°14.799 2°53.814 6.8 334 -1.1 102680 100
2008-02-19 08:13:31 51°14.799 2°53.819 6.8 285 -1.1 102690 100
2008-02-19 08:13:36 51°14.8 2°53.824 7.1 331 -1.1 102690 100
2008-02-19 08:13:41 51°14.801 2°53.829 6.9 285 -1.1 102680 100
2008-02-19 08:13:46 51°14.801 2°53.833 6.9 338 -1.1 102680 100
2008-02-19 08:13:51 51°14.802 2°53.838 7 288 -1.1 102690 100
2008-02-19 08:13:56 51°14.802 2°53.842 8.6 338 -1.1 102690 100
2008-02-19 08:14:01 51°14.803 2°53.846 7.2 283 -1.1 102690 100
2008-02-19 08:14:06 51°14.803 2°53.85 7.4 344 -1.1 102690 100
2008-02-19 08:14:10 51°14.803 2°53.853 7.3 280 -1.2 102690 100
2008-02-19 08:14:15 51°14.804 2°53.856 7.2 344 -1.2 102690 100
2008-02-19 08:14:21 51°14.804 2°53.86 6.5 285 -1.2 102690 100
2008-02-19 08:14:26 51°14.805 2°53.862 7.1 342 -1.2 102690 100
2008-02-19 08:14:30 51°14.805 2°53.864 7.3 281 -1.2 102680 100
2008-02-19 08:14:35 51°14.806 2°53.866 7.3 343 -1.2 102680 100
2008-02-19 08:14:40 51°14.806 2°53.868 7.4 282 -1.2 102680 100
2008-02-19 08:14:45 51°14.806 2°53.868 7.4 347 -1.2 102680 100
2008-02-19 08:14:50 51°14.806 2°53.869 6.5 350 -1.2 102680 100
2008-02-19 08:14:55 51°14.806 2°53.869 7.4 347 -1.2 102680 100
2008-02-19 08:15:00 51°14.806 2°53.868 7.4 351 -1.2 102680 100
2008-02-19 08:15:05 51°14.806 2°53.869 6.9 352 -1.2 102680 100
2008-02-19 08:15:10 51°14.806 2°53.868 6.1 352 -1.2 102680 100
2008-02-19 08:15:14 51°14.806 2°53.868 6.6 354 -1.2 102680 100
2008-02-19 08:15:20 51°14.806 2°53.868 6.8 357 -1.2 102680 100
2008-02-19 08:15:25 51°14.806 2°53.868 7 353 -1.2 102680 100
2008-02-19 08:15:30 51°14.806 2°53.867 7.6 355 -1.3 102680 100
2008-02-19 08:15:35 51°14.807 2°53.866 7.6 358 -1.3 102680 100
2008-02-19 08:15:40 51°14.807 2°53.866 7.4 360 -1.3 102680 100
2008-02-19 08:15:45 51°14.807 2°53.865 6.5 360 -1.3 102680 100
2008-02-19 08:15:50 51°14.808 2°53.865 6.6 359 -1.3 102680 100
2008-02-19 08:15:55 51°14.808 2°53.864 5.4 4 -1.3 102680 100
2008-02-19 08:16:00 51°14.808 2°53.864 6.2 2 -1.2 102670 100
2008-02-19 08:16:05 51°14.809 2°53.863 5.9 2 -1.2 102670 100
2008-02-19 08:16:10 51°14.809 2°53.863 6.7 8 -1.2 102680 100
2008-02-19 08:16:15 51°14.81 2°53.862 6 7 -1.2 102680 100
2008-02-19 08:16:20 51°14.81 2°53.861 5.6 8 -1.3 102680 100
2008-02-19 08:16:25 51°14.811 2°53.861 6.3 6 -1.3 102680 100
2008-02-19 08:16:30 51°14.812 2°53.86 7.1 8 -1.3 102680 100
2008-02-19 08:16:35 51°14.812 2°53.859 5.9 9 -1.3 102680 100
2008-02-19 08:16:40 51°14.813 2°53.859 6.6 8 -1.3 102670 100
2008-02-19 08:16:45 51°14.813 2°53.858 6.4 4 -1.3 102670 100
2008-02-19 08:16:50 51°14.814 2°53.858 5.7 -999 -1.3 102670 100
2008-02-19 08:16:55 51°14.815 2°53.857 5.5 3 -1.3 102670 100
2008-02-19 08:17:00 51°14.815 2°53.856 5.7 4 -1.3 102670 100
2008-02-19 08:17:05 51°14.816 2°53.856 6 359 -1.3 102670 100
2008-02-19 08:17:10 51°14.817 2°53.855 5.1 2 -1.3 102670 100
2008-02-19 08:17:15 51°14.817 2°53.854 5.2 -999 -1.3 102670 100
2008-02-19 08:17:20 51°14.818 2°53.853 5.4 8 -1.3 102670 100
2008-02-19 08:17:25 51°14.818 2°53.853 4.9 5 -1.3 102670 100
2008-02-19 08:17:30 51°14.819 2°53.852 5.1 5 -1.3 102670 100
2008-02-19 08:17:35 51°14.819 2°53.852 5.8 7 -1.3 102670 100
2008-02-19 08:17:40 51°14.82 2°53.851 4.9 7 -1.3 102680 100
2008-02-19 08:17:45 51°14.82 2°53.851 5.5 3 -1.3 102680 100
2008-02-19 08:17:50 51°14.82 2°53.85 4.3 6 -1.3 102680 100
2008-02-19 08:17:55 51°14.821 2°53.85 5 5 -1.3 102680 100
2008-02-19 08:18:00 51°14.821 2°53.849 6 4 -1.3 102680 100
2008-02-19 08:18:05 51°14.822 2°53.848 6.2 1 -1.3 102680 100
2008-02-19 08:18:10 51°14.822 2°53.847 6.3 2 -1.3 102680 100
2008-02-19 08:18:15 51°14.822 2°53.847 5.8 359 -1.3 102680 100
2008-02-19 08:18:20 51°14.823 2°53.846 7.2 1 -1.3 102680 100
2008-02-19 08:18:25 51°14.823 2°53.846 6.9 360 -1.3 102680 100
2008-02-19 08:18:30 51°14.823 2°53.845 5.4 2 -1.2 102680 100
2008-02-19 08:18:35 51°14.824 2°53.844 6.4 358 -1.2 102680 100
2008-02-19 08:18:40 51°14.824 2°53.844 6.8 357 -1.2 102680 100
2008-02-19 08:18:45 51°14.824 2°53.843 6.4 358 -1.2 102680 100
2008-02-19 08:18:50 51°14.825 2°53.842 6.3 359 -1.2 102680 100
2008-02-19 08:18:55 51°14.825 2°53.842 5.7 2 -1.2 102680 100
2008-02-19 08:19:00 51°14.825 2°53.841 5.6 1 -1.2 102680 100
2008-02-19 08:19:05 51°14.825 2°53.84 5.8 360 -1.2 102680 100
2008-02-19 08:19:10 51°14.826 2°53.84 5.9 360 -1.3 102680 100
2008-02-19 08:19:15 51°14.826 2°53.839 6 356 -1.3 102680 100
2008-02-19 08:19:20 51°14.826 2°53.838 6.9 355 -1.3 102680 100
2008-02-19 08:19:25 51°14.826 2°53.838 6.9 355 -1.3 102680 100
2008-02-19 08:19:30 51°14.826 2°53.837 6.9 357 -1.3 102680 100
2008-02-19 08:19:35 51°14.827 2°53.837 7.5 358 -1.3 102680 100
2008-02-19 08:19:40 51°14.827 2°53.836 6.1 1 -1.3 102680 100
2008-02-19 08:19:45 51°14.827 2°53.835 5.8 359 -1.3 102680 100
2008-02-19 08:19:50 51°14.827 2°53.834 5.9 358 -1.3 102680 100
2008-02-19 08:19:55 51°14.827 2°53.833 5 3 -1.3 102680 100
2008-02-19 08:20:00 51°14.827 2°53.833 5.8 358 -1.3 102680 100
2008-02-19 08:20:05 51°14.827 2°53.832 5.8 1 -1.3 102680 100
2008-02-19 08:20:10 51°14.828 2°53.831 6.2 356 -1.3 102680 100
2008-02-19 08:20:15 51°14.828 2°53.831 6.2 352 -1.3 102680 100
2008-02-19 08:20:20 51°14.828 2°53.831 5.7 352 -1.3 102680 100
2008-02-19 08:20:25 51°14.828 2°53.83 6.1 353 -1.3 102680 100
2008-02-19 08:20:30 51°14.829 2°53.83 6.6 352 -1.3 102680 100
2008-02-19 08:20:35 51°14.829 2°53.829 6.6 349 -1.3 102680 100
2008-02-19 08:20:40 51°14.829 2°53.829 5.9 349 -1.2 102680 100
2008-02-19 08:20:45 51°14.829 2°53.829 7.1 349 -1.2 102680 100
2008-02-19 08:20:50 51°14.829 2°53.829 6.4 354 -1.2 102680 100
2008-02-19 08:20:55 51°14.83 2°53.828 7 355 -1.2 102680 100
2008-02-19 08:21:00 51°14.83 2°53.828 6.6 350 -1.2 102680 100
2008-02-19 08:21:05 51°14.83 2°53.828 6.7 348 -1.2 102680 100
2008-02-19 08:21:10 51°14.83 2°53.828 6.7 350 -1.2 102680 100
2008-02-19 08:21:15 51°14.83 2°53.828 6.7 348 -1.2 102680 100
2008-02-19 08:21:20 51°14.831 2°53.827 6.4 282 -1.2 102680 100
2008-02-19 08:21:25 51°14.831 2°53.827 5.5 349 -1.2 102680 100
2008-02-19 08:21:30 51°14.831 2°53.827 6.9 281 -1.2 102680 100
2008-02-19 08:21:35 51°14.831 2°53.827 6.6 347 -1.2 102680 100
2008-02-19 08:21:40 51°14.832 2°53.827 6.5 348 -1.3 102680 100
2008-02-19 08:21:45 51°14.832 2°53.827 7.2 350 -1.3 102680 100
2008-02-19 08:21:50 51°14.832 2°53.827 4.4 284 -1.3 102690 100
2008-02-19 08:21:55 51°14.832 2°53.827 6.5 345 -1.3 102690 100
2008-02-19 08:22:00 51°14.832 2°53.827 6.6 283 -1.3 102680 100
2008-02-19 08:22:05 51°14.832 2°53.827 6.6 345 -1.3 102680 100
2008-02-19 08:22:10 51°14.832 2°53.828 5.6 285 -1.3 102680 100
2008-02-19 08:22:15 51°14.833 2°53.828 6.1 345 -1.3 102680 100
2008-02-19 08:22:20 51°14.833 2°53.828 5.7 287 -1.3 102680 100
2008-02-19 08:22:25 51°14.833 2°53.828 6.3 343 -1.3 102680 100
2008-02-19 08:22:30 51°14.833 2°53.828 7.3 286 -1.4 102680 100
2008-02-19 08:22:35 51°14.833 2°53.829 6.9 345 -1.4 102680 100
2008-02-19 08:22:40 51°14.833 2°53.829 5.9 349 -1.4 102680 100
2008-02-19 08:22:45 51°14.833 2°53.829 7 347 -1.4 102680 100
2008-02-19 08:22:50 51°14.833 2°53.829 6.9 344 -1.4 102680 100
2008-02-19 08:22:55 51°14.833 2°53.83 6.1 344 -1.4 102680 100
2008-02-19 08:23:00 51°14.833 2°53.83 6.7 284 -1.3 102680 100
2008-02-19 08:23:05 51°14.833 2°53.831 6.7 340 -1.3 102680 100
2008-02-19 08:23:10 51°14.833 2°53.831 6.5 285 -1.3 102680 100
2008-02-19 08:23:15 51°14.833 2°53.832 6.4 343 -1.3 102680 100
2008-02-19 08:23:20 51°14.833 2°53.832 7 285 -1.4 102680 100
2008-02-19 08:23:25 51°14.833 2°53.832 6.6 345 -1.4 102680 100
2008-02-19 08:23:30 51°14.833 2°53.833 5.8 287 -1.3 102680 100
2008-02-19 08:23:35 51°14.833 2°53.834 7.2 341 -1.3 102680 100
2008-02-19 08:23:40 51°14.833 2°53.834 6.4 280 -1.4 102680 100
2008-02-19 08:23:45 51°14.833 2°53.835 6.2 339 -1.4 102680 100
2008-02-19 08:23:50 51°14.833 2°53.835 6.3 339 -1.4 102680 100
2008-02-19 08:23:55 51°14.833 2°53.836 6.3 341 -1.4 102680 100
2008-02-19 08:24:00 51°14.833 2°53.837 6.3 282 -1.4 102680 100
2008-02-19 08:24:05 51°14.833 2°53.839 6.3 338 -1.4 102680 100
2008-02-19 08:24:10 51°14.833 2°53.842 7 284 -1.4 102680 100
2008-02-19 08:24:15 51°14.833 2°53.846 6.9 339 -1.4 102680 100
2008-02-19 08:24:20 51°14.833 2°53.851 6.2 285 -1.4 102680 100
2008-02-19 08:24:25 51°14.834 2°53.856 6.4 338 -1.4 102680 100
2008-02-19 08:24:30 51°14.834 2°53.863 7.6 280 -1.4 102680 100
2008-02-19 08:24:35 51°14.834 2°53.872 6.9 335 -1.4 102680 100
2008-02-19 08:24:40 51°14.836 2°53.882 9.5 281 -1.4 102680 100
2008-02-19 08:24:45 51°14.838 2°53.893 9.2 342 -1.4 102680 100
2008-02-19 08:24:50 51°14.841 2°53.904 8.2 282 -1.4 102680 100
2008-02-19 08:24:55 51°14.844 2°53.917 8.9 342 -1.4 102680 100
2008-02-19 08:25:00 51°14.848 2°53.93 9.3 281 -1.3 102670 100
2008-02-19 08:25:05 51°14.852 2°53.944 8.5 342 -1.3 102670 100
2008-02-19 08:25:10 51°14.855 2°53.959 9.6 282 -1.4 102670 100
2008-02-19 08:25:15 51°14.859 2°53.974 9.1 340 -1.4 102670 100
2008-02-19 08:25:20 51°14.863 2°53.99 9.4 281 -1.4 102670 100
2008-02-19 08:25:25 51°14.867 2°54.005 9.5 339 -1.4 102670 100
2008-02-19 08:25:30 51°14.871 2°54.019 9.7 282 -1.4 102670 100
2008-02-19 08:25:35 51°14.876 2°54.033 9.5 342 -1.4 102670 100
2008-02-19 08:25:40 51°14.88 2°54.046 10.2 285 -1.4 102670 100
2008-02-19 08:25:45 51°14.885 2°54.058 9.3 346 -1.4 102670 100
2008-02-19 08:25:50 51°14.889 2°54.07 9.4 346 -1.4 102670 100
2008-02-19 08:25:55 51°14.894 2°54.081 8.1 349 -1.4 102670 100
2008-02-19 08:26:00 51°14.9 2°54.091 8.6 279 -1.4 102670 100
2008-02-19 08:26:05 51°14.905 2°54.101 7.9 350 -1.4 102670 100
2008-02-19 08:26:10 51°14.91 2°54.111 7.6 352 -1.4 102670 100
2008-02-19 08:26:15 51°14.916 2°54.121 7.6 351 -1.4 102670 100
2008-02-19 08:26:20 51°14.921 2°54.13 7.5 351 -1.4 102670 100
2008-02-19 08:26:25 51°14.926 2°54.139 8 351 -1.4 102670 100
2008-02-19 08:26:30 51°14.932 2°54.148 7.7 350 -1.5 102660 100
2008-02-19 08:26:35 51°14.937 2°54.158 7.8 354 -1.5 102660 100
2008-02-19 08:26:40 51°14.942 2°54.167 9 348 -1.5 102670 100
2008-02-19 08:26:45 51°14.947 2°54.176 8.6 348 -1.5 102670 100
2008-02-19 08:26:50 51°14.953 2°54.185 8.8 280 -1.5 102670 100
2008-02-19 08:26:55 51°14.958 2°54.194 8.5 346 -1.5 102670 100
2008-02-19 08:27:00 51°14.963 2°54.203 8.7 282 -1.4 102670 100
2008-02-19 08:27:05 51°14.968 2°54.212 9.1 345 -1.4 102670 100
2008-02-19 08:27:10 51°14.973 2°54.221 8.3 281 -1.4 102670 100
2008-02-19 08:27:15 51°14.978 2°54.23 8.3 345 -1.4 102670 100
2008-02-19 08:27:20 51°14.983 2°54.239 9 347 -1.4 102670 100
2008-02-19 08:27:25 51°14.988 2°54.247 8.1 346 -1.4 102670 100
2008-02-19 08:27:30 51°14.993 2°54.256 8.4 347 -1.5 102670 100
2008-02-19 08:27:35 51°14.997 2°54.264 8.6 350 -1.5 102670 100
2008-02-19 08:27:40 51°15.002 2°54.272 8.8 350 -1.5 102670 100
2008-02-19 08:27:45 51°15.006 2°54.279 8 349 -1.5 102670 100
2008-02-19 08:27:50 51°15.01 2°54.287 7.7 350 -1.5 102670 100
2008-02-19 08:27:55 51°15.014 2°54.294 8.7 351 -1.5 102670 100
2008-02-19 08:28:00 51°15.019 2°54.302 9 281 -1.5 102670 100
2008-02-19 08:28:05 51°15.023 2°54.309 8.1 348 -1.5 102670 100
2008-02-19 08:28:10 51°15.027 2°54.317 8.2 350 -1.5 102680 100
2008-02-19 08:28:15 51°15.031 2°54.324 7.3 347 -1.5 102680 100
2008-02-19 08:28:20 51°15.036 2°54.331 7.5 351 -1.5 102670 100
2008-02-19 08:28:25 51°15.039 2°54.338 7.5 351 -1.5 102670 100
2008-02-19 08:28:30 51°15.043 2°54.345 7.5 350 -1.5 102670 100
2008-02-19 08:28:35 51°15.047 2°54.353 7.4 352 -1.5 102670 100
2008-02-19 08:28:40 51°15.05 2°54.36 7.2 280 -1.5 102670 100
2008-02-19 08:28:45 51°15.053 2°54.367 6.7 348 -1.5 102670 100
2008-02-19 08:28:50 51°15.057 2°54.374 7.5 348 -1.5 102680 100
2008-02-19 08:28:55 51°15.06 2°54.381 7.5 347 -1.5 102680 100
2008-02-19 08:29:00 51°15.063 2°54.387 8.6 349 -1.5 102670 100
2008-02-19 08:29:05 51°15.066 2°54.394 7.9 351 -1.5 102670 100
2008-02-19 08:29:10 51°15.069 2°54.4 7.6 349 -1.5 102680 100
2008-02-19 08:29:15 51°15.072 2°54.406 7.5 349 -1.5 102680 100
2008-02-19 08:29:20 51°15.074 2°54.412 8.4 349 -1.5 102670 100
2008-02-19 08:29:24 51°15.076 2°54.417 7.4 350 -1.5 102670 100
2008-02-19 08:29:30 51°15.079 2°54.423 7.8 350 -1.5 102670 100
2008-02-19 08:29:34 51°15.081 2°54.428 7.6 351 -1.5 102670 100
2008-02-19 08:29:40 51°15.084 2°54.434 6.9 351 -1.5 102670 100
2008-02-19 08:29:44 51°15.086 2°54.438 7.7 350 -1.5 102670 100
2008-02-19 08:29:50 51°15.088 2°54.444 7 350 -1.5 102670 100
2008-02-19 08:29:55 51°15.09 2°54.448 6.7 353 -1.5 102670 100
2008-02-19 08:30:00 51°15.092 2°54.453 6.8 352 -1.6 102680 100
2008-02-19 08:30:04 51°15.094 2°54.456 6.7 354 -1.6 102680 100
2008-02-19 08:30:10 51°15.096 2°54.461 6.6 352 -1.6 102680 100
2008-02-19 08:30:14 51°15.097 2°54.464 6.4 349 -1.6 102680 100
2008-02-19 08:30:20 51°15.099 2°54.468 6.5 349 -1.6 102680 100
2008-02-19 08:30:25 51°15.101 2°54.472 5.9 347 -1.6 102680 100
2008-02-19 08:30:30 51°15.102 2°54.475 5.6 348 -1.6 102680 100
2008-02-19 08:30:34 51°15.103 2°54.478 6 347 -1.6 102680 100
2008-02-19 08:30:40 51°15.105 2°54.481 5.7 346 -1.6 102680 100
2008-02-19 08:30:44 51°15.106 2°54.484 5.5 345 -1.6 102680 100
2008-02-19 08:30:50 51°15.107 2°54.487 5.4 344 -1.6 102680 100
2008-02-19 08:30:54 51°15.108 2°54.489 5.2 346 -1.6 102680 100
2008-02-19 08:31:00 51°15.109 2°54.492 5.5 281 -1.6 102680 100
2008-02-19 08:31:04 51°15.109 2°54.494 5.5 350 -1.6 102680 100
2008-02-19 08:31:10 51°15.11 2°54.496 6.1 350 -1.5 102680 100
2008-02-19 08:31:14 51°15.11 2°54.498 5.8 354 -1.5 102680 100
2008-02-19 08:31:20 51°15.111 2°54.5 5.8 353 -1.5 102680 100
2008-02-19 08:31:25 51°15.112 2°54.501 5.9 354 -1.5 102680 100
2008-02-19 08:31:30 51°15.112 2°54.503 5 351 -1.5 102680 100
2008-02-19 08:31:35 51°15.112 2°54.504 5.4 350 -1.5 102680 100
2008-02-19 08:31:40 51°15.113 2°54.505 5.1 350 -1.4 102680 100
2008-02-19 08:31:45 51°15.113 2°54.506 6 349 -1.4 102680 100
2008-02-19 08:31:50 51°15.114 2°54.507 5.4 345 -1.5 102680 100
2008-02-19 08:31:54 51°15.114 2°54.508 5.9 347 -1.5 102680 100
2008-02-19 08:32:00 51°15.114 2°54.509 5.6 283 -1.5 102680 100
2008-02-19 08:32:05 51°15.114 2°54.51 6.6 346 -1.5 102680 100
2008-02-19 08:32:10 51°15.115 2°54.51 6 280 -1.5 102680 100
2008-02-19 08:32:15 51°15.115 2°54.511 5.3 347 -1.5 102680 100
2008-02-19 08:32:20 51°15.115 2°54.512 5 281 -1.5 102680 100
2008-02-19 08:32:25 51°15.115 2°54.512 5.9 346 -1.5 102680 100
2008-02-19 08:32:30 51°15.116 2°54.513 6 349 -1.4 102680 100
2008-02-19 08:32:35 51°15.116 2°54.513 5.4 346 -1.4 102680 100
2008-02-19 08:32:40 51°15.116 2°54.514 6.1 347 -1.4 102680 100
2008-02-19 08:32:45 51°15.116 2°54.514 5.6 349 -1.4 102680 100
2008-02-19 08:32:50 51°15.117 2°54.514 5.4 347 -1.4 102680 100
2008-02-19 08:32:55 51°15.117 2°54.515 5.6 348 -1.4 102680 100
2008-02-19 08:33:00 51°15.117 2°54.515 5.5 351 -1.4 102680 100
2008-02-19 08:33:05 51°15.117 2°54.515 5.6 354 -1.4 102680 100
2008-02-19 08:33:10 51°15.117 2°54.515 5.7 352 -1.4 102680 100
2008-02-19 08:33:15 51°15.117 2°54.516 4.6 351 -1.4 102680 100
2008-02-19 08:33:20 51°15.118 2°54.516 5.3 351 -1.4 102680 100
2008-02-19 08:33:26 51°15.118 2°54.516 4.9 350 -1.4 102680 100
2008-02-19 08:33:30 51°15.118 2°54.516 4.9 282 -1.4 102690 100
2008-02-19 08:33:35 51°15.118 2°54.516 4.8 350 -1.4 102690 100
2008-02-19 08:33:40 51°15.119 2°54.516 5.3 353 -1.4 102680 100
2008-02-19 08:33:45 51°15.119 2°54.516 5.7 352 -1.4 102680 100
2008-02-19 08:33:50 51°15.119 2°54.516 5.5 355 -1.4 102680 100
2008-02-19 08:33:55 51°15.119 2°54.516 6.2 355 -1.4 102680 100
2008-02-19 08:34:00 51°15.12 2°54.516 6.5 357 -1.4 102690 100
2008-02-19 08:34:05 51°15.12 2°54.516 5.9 -999 -1.4 102690 100
2008-02-19 08:34:10 51°15.12 2°54.515 5.4 355 -1.4 102680 100
2008-02-19 08:34:15 51°15.12 2°54.515 5.6 1 -1.4 102680 100
2008-02-19 08:34:20 51°15.121 2°54.515 5.4 1 -1.4 102680 100
2008-02-19 08:34:25 51°15.121 2°54.515 4.6 2 -1.4 102680 100
2008-02-19 08:34:30 51°15.121 2°54.514 4.9 3 -1.4 102680 100
2008-02-19 08:34:35 51°15.121 2°54.514 5.3 3 -1.4 102680 100
2008-02-19 08:34:40 51°15.121 2°54.513 4.5 3 -1.4 102680 100
2008-02-19 08:34:45 51°15.121 2°54.513 5.1 3 -1.4 102680 100
2008-02-19 08:34:50 51°15.122 2°54.512 5.2 4 -1.4 102680 100
2008-02-19 08:34:55 51°15.122 2°54.512 5.2 1 -1.4 102680 100
2008-02-19 08:35:00 51°15.122 2°54.511 4.7 4 -1.4 102680 100
2008-02-19 08:35:05 51°15.122 2°54.511 4.7 5 -1.4 102680 100
2008-02-19 08:35:10 51°15.122 2°54.51 4.6 2 -1.4 102680 100
2008-02-19 08:35:15 51°15.123 2°54.51 4.4 3 -1.4 102680 100
2008-02-19 08:35:20 51°15.123 2°54.509 3.5 5 -1.4 102680 100
2008-02-19 08:35:25 51°15.123 2°54.509 4.9 3 -1.4 102680 100
2008-02-19 08:35:30 51°15.123 2°54.508 4.1 8 -1.4 102680 100
2008-02-19 08:35:35 51°15.123 2°54.507 4.2 5 -1.4 102680 100
2008-02-19 08:35:40 51°15.123 2°54.507 4.9 2 -1.5 102680 100
2008-02-19 08:35:44 51°15.123 2°54.507 4.8 359 -1.5 102680 100
2008-02-19 08:35:50 51°15.123 2°54.506 4.5 3 -1.4 102680 100
2008-02-19 08:35:55 51°15.124 2°54.505 5.2 359 -1.4 102680 100
2008-02-19 08:36:00 51°15.124 2°54.505 5.1 6 -1.4 102680 100
2008-02-19 08:36:05 51°15.124 2°54.504 5 359 -1.4 102680 100
2008-02-19 08:36:10 51°15.124 2°54.504 5.4 355 -1.4 102680 100
2008-02-19 08:36:15 51°15.124 2°54.503 5.1 353 -1.4 102680 100
2008-02-19 08:36:20 51°15.124 2°54.503 5.6 353 -1.3 102670 100
2008-02-19 08:36:25 51°15.125 2°54.502 5.2 -999 -1.3 102670 100
2008-02-19 08:36:30 51°15.125 2°54.502 5.2 356 -1.3 102680 100
2008-02-19 08:36:35 51°15.125 2°54.502 5.3 358 -1.3 102680 100
2008-02-19 08:36:40 51°15.126 2°54.501 5.6 5 -1.3 102680 100
2008-02-19 08:36:45 51°15.126 2°54.501 3.9 6 -1.3 102680 100
2008-02-19 08:36:50 51°15.126 2°54.501 3.7 6 -1.3 102680 100
2008-02-19 08:36:55 51°15.127 2°54.5 5.3 2 -1.3 102680 100
2008-02-19 08:36:59 51°15.127 2°54.5 4.7 357 -1.2 102680 100
2008-02-19 08:37:05 51°15.128 2°54.5 4.9 358 -1.2 102680 100
2008-02-19 08:37:10 51°15.128 2°54.5 5.2 358 -1.2 102680 100
2008-02-19 08:37:15 51°15.129 2°54.5 5.5 354 -1.2 102680 100
2008-02-19 08:37:20 51°15.129 2°54.5 6.2 350 -1.2 102680 100
2008-02-19 08:37:25 51°15.13 2°54.5 6 357 -1.2 102680 100
2008-02-19 08:37:30 51°15.131 2°54.5 5.7 358 -1.1 102680 100
2008-02-19 08:37:35 51°15.131 2°54.5 6 356 -1.1 102680 100
2008-02-19 08:37:40 51°15.131 2°54.5 5.3 354 -1.1 102680 100
2008-02-19 08:37:45 51°15.132 2°54.5 5.8 356 -1.1 102680 100
2008-02-19 08:37:50 51°15.133 2°54.5 6.2 350 -1.1 102680 100
2008-02-19 08:37:55 51°15.133 2°54.501 5.7 353 -1.1 102680 100
2008-02-19 08:38:00 51°15.134 2°54.501 5.7 357 -1.1 102680 100
2008-02-19 08:38:05 51°15.134 2°54.501 6.1 353 -1.1 102680 100
2008-02-19 08:38:10 51°15.135 2°54.501 5.6 353 -1.1 102680 100
2008-02-19 08:38:15 51°15.135 2°54.502 5.2 355 -1.1 102680 100
2008-02-19 08:38:20 51°15.136 2°54.502 5.5 355 -1.1 102680 100
2008-02-19 08:38:25 51°15.136 2°54.502 5.3 351 -1.1 102680 100
2008-02-19 08:38:30 51°15.137 2°54.503 5.8 350 -1.2 102680 100
2008-02-19 08:38:35 51°15.137 2°54.503 5.8 349 -1.2 102680 100
2008-02-19 08:38:40 51°15.138 2°54.503 5.6 351 -1.2 102680 100
2008-02-19 08:38:45 51°15.138 2°54.504 6 350 -1.2 102680 100
2008-02-19 08:38:50 51°15.139 2°54.504 6 353 -1.2 102690 100
2008-02-19 08:38:55 51°15.139 2°54.504 5.9 352 -1.2 102690 100
2008-02-19 08:39:00 51°15.14 2°54.505 5 353 -1.2 102680 100
2008-02-19 08:39:05 51°15.14 2°54.505 5.3 353 -1.2 102680 100
2008-02-19 08:39:10 51°15.141 2°54.505 5.9 354 -1.2 102680 100
2008-02-19 08:39:15 51°15.141 2°54.505 5.6 353 -1.2 102680 100
2008-02-19 08:39:20 51°15.141 2°54.506 5.7 352 -1.3 102680 100
2008-02-19 08:39:25 51°15.142 2°54.506 5.8 355 -1.3 102680 100
2008-02-19 08:39:30 51°15.142 2°54.506 5.9 355 -1.3 102680 100
2008-02-19 08:39:35 51°15.143 2°54.506 5.7 355 -1.3 102680 100
2008-02-19 08:39:40 51°15.143 2°54.507 5.9 353 -1.3 102680 100
2008-02-19 08:39:45 51°15.143 2°54.506 5.3 354 -1.3 102680 100
2008-02-19 08:39:50 51°15.144 2°54.507 5.6 356 -1.4 102680 100
2008-02-19 08:39:55 51°15.144 2°54.507 5.7 353 -1.4 102680 100
2008-02-19 08:40:00 51°15.144 2°54.507 5.2 353 -1.4 102680 100
2008-02-19 08:40:05 51°15.145 2°54.507 5.3 353 -1.4 102680 100
2008-02-19 08:40:10 51°15.145 2°54.507 5.3 354 -1.4 102680 100
2008-02-19 08:40:15 51°15.146 2°54.507 5.5 354 -1.4 102680 100
2008-02-19 08:40:20 51°15.146 2°54.507 5.1 353 -1.4 102690 100
2008-02-19 08:40:25 51°15.146 2°54.507 5 350 -1.4 102690 100
2008-02-19 08:40:30 51°15.146 2°54.507 5.1 353 -1.4 102680 100
2008-02-19 08:40:35 51°15.146 2°54.507 5.9 353 -1.4 102680 100
2008-02-19 08:40:40 51°15.147 2°54.507 5.9 353 -1.4 102680 100
2008-02-19 08:40:45 51°15.147 2°54.508 6.1 352 -1.4 102680 100
2008-02-19 08:40:50 51°15.148 2°54.51 6.1 352 -1.4 102680 100
2008-02-19 08:40:55 51°15.15 2°54.512 6.1 349 -1.4 102680 100
2008-02-19 08:41:00 51°15.152 2°54.517 6.5 347 -1.4 102680 100
2008-02-19 08:41:05 51°15.154 2°54.523 6.4 348 -1.4 102680 100
2008-02-19 08:41:10 51°15.157 2°54.53 7 280 -1.4 102690 100
2008-02-19 08:41:15 51°15.161 2°54.538 7.4 346 -1.4 102690 100
2008-02-19 08:41:20 51°15.165 2°54.548 6.8 285 -1.4 102680 100
2008-02-19 08:41:25 51°15.169 2°54.559 6.9 342 -1.4 102680 100
2008-02-19 08:41:30 51°15.174 2°54.57 7.5 344 -1.4 102680 100
2008-02-19 08:41:35 51°15.18 2°54.583 8.2 345 -1.4 102680 100
2008-02-19 08:41:40 51°15.186 2°54.597 8 281 -1.4 102690 100
2008-02-19 08:41:45 51°15.192 2°54.611 9.6 341 -1.4 102690 100
2008-02-19 08:41:50 51°15.2 2°54.626 9.2 343 -1.4 102690 100
2008-02-19 08:41:55 51°15.208 2°54.641 9.9 342 -1.4 102690 100
2008-02-19 08:42:00 51°15.216 2°54.657 10.1 279 -1.4 102680 100
2008-02-19 08:42:05 51°15.225 2°54.673 9.4 343 -1.4 102680 100
2008-02-19 08:42:10 51°15.234 2°54.69 9.8 283 -1.4 102680 100
2008-02-19 08:42:15 51°15.243 2°54.708 9.1 344 -1.4 102680 100
2008-02-19 08:42:20 51°15.253 2°54.725 9 345 -1.4 102680 100
2008-02-19 08:42:25 51°15.262 2°54.744 10 345 -1.4 102680 100
2008-02-19 08:42:30 51°15.272 2°54.763 9.9 283 -1.3 102680 100
2008-02-19 08:42:35 51°15.282 2°54.783 10.2 341 -1.3 102680 100
2008-02-19 08:42:40 51°15.292 2°54.802 9.8 281 -1.3 102680 100
2008-02-19 08:42:45 51°15.302 2°54.822 11.2 339 -1.3 102680 100
2008-02-19 08:42:50 51°15.312 2°54.843 11.6 339 -1.3 102680 100
2008-02-19 08:42:55 51°15.322 2°54.863 10.6 340 -1.3 102680 100
2008-02-19 08:43:00 51°15.332 2°54.884 9.9 280 -1.3 102680 100
2008-02-19 08:43:05 51°15.342 2°54.905 10.1 340 -1.3 102680 100
2008-02-19 08:43:10 51°15.352 2°54.926 9.8 280 -1.3 102680 100
2008-02-19 08:43:15 51°15.362 2°54.947 10.3 340 -1.3 102680 100
2008-02-19 08:43:20 51°15.372 2°54.968 10.6 285 -1.2 102680 100
2008-02-19 08:43:25 51°15.382 2°54.99 10.2 340 -1.2 102680 100
2008-02-19 08:43:30 51°15.393 2°55.01 10.8 284 -1.2 102670 100
2008-02-19 08:43:35 51°15.404 2°55.031 10.1 339 -1.2 102670 100
2008-02-19 08:43:40 51°15.415 2°55.05 11 282 -1.2 102670 100
2008-02-19 08:43:45 51°15.426 2°55.07 10 340 -1.2 102670 100
2008-02-19 08:43:50 51°15.437 2°55.09 10.1 342 -1.2 102670 100
2008-02-19 08:43:55 51°15.448 2°55.11 10.1 340 -1.2 102670 100
2008-02-19 08:44:00 51°15.459 2°55.13 9.9 282 -1.2 102670 100
2008-02-19 08:44:05 51°15.47 2°55.151 10.1 341 -1.2 102670 100
2008-02-19 08:44:10 51°15.481 2°55.171 10 283 -1.2 102670 100
2008-02-19 08:44:15 51°15.492 2°55.192 11.6 341 -1.2 102670 100
2008-02-19 08:44:20 51°15.502 2°55.213 10.4 284 -1.2 102670 100
2008-02-19 08:44:25 51°15.512 2°55.234 9.9 339 -1.2 102670 100
2008-02-19 08:44:30 51°15.522 2°55.255 10.5 282 -1.2 102680 100
2008-02-19 08:44:35 51°15.533 2°55.276 10.8 341 -1.2 102680 100
2008-02-19 08:44:40 51°15.543 2°55.297 11.7 286 -1.2 102670 100
2008-02-19 08:44:45 51°15.554 2°55.318 11.3 340 -1.2 102670 100
2008-02-19 08:44:50 51°15.565 2°55.339 10.7 342 -1.2 102670 100
2008-02-19 08:44:55 51°15.575 2°55.359 11.1 341 -1.2 102670 100
2008-02-19 08:45:00 51°15.585 2°55.379 10.7 283 -1.1 102670 100
2008-02-19 08:45:05 51°15.594 2°55.399 10.8 344 -1.1 102670 100
2008-02-19 08:45:10 51°15.603 2°55.417 10.4 279 -1.1 102670 100
2008-02-19 08:45:15 51°15.612 2°55.436 10.3 344 -1.1 102670 100
2008-02-19 08:45:20 51°15.621 2°55.453 10.3 284 -1.2 102670 100
2008-02-19 08:45:25 51°15.63 2°55.47 9.3 346 -1.2 102670 100
2008-02-19 08:45:30 51°15.638 2°55.488 9.7 282 -1.2 102680 100
2008-02-19 08:45:35 51°15.647 2°55.504 9.8 347 -1.2 102680 100
2008-02-19 08:45:40 51°15.655 2°55.52 9.5 282 -1.2 102680 100
2008-02-19 08:45:45 51°15.663 2°55.536 9 345 -1.2 102680 100
2008-02-19 08:45:50 51°15.672 2°55.552 9.2 343 -1.2 102670 100
2008-02-19 08:45:55 51°15.68 2°55.568 9 344 -1.2 102670 100
2008-02-19 08:46:00 51°15.688 2°55.583 9.7 282 -1.2 102670 100
2008-02-19 08:46:05 51°15.695 2°55.597 8.8 346 -1.2 102670 100
2008-02-19 08:46:10 51°15.702 2°55.61 9.1 345 -1.1 102680 100
2008-02-19 08:46:15 51°15.708 2°55.623 8.5 345 -1.1 102680 100
2008-02-19 08:46:20 51°15.713 2°55.634 7.8 282 -1.1 102680 100
2008-02-19 08:46:25 51°15.719 2°55.646 7.2 346 -1.1 102680 100
2008-02-19 08:46:30 51°15.724 2°55.656 7.6 349 -1.1 102680 100
2008-02-19 08:46:35 51°15.728 2°55.667 7.4 347 -1.1 102680 100
2008-02-19 08:46:40 51°15.732 2°55.676 7.4 345 -1.1 102680 100
2008-02-19 08:46:45 51°15.737 2°55.686 7.3 345 -1.1 102680 100
2008-02-19 08:46:50 51°15.74 2°55.695 7.7 344 -1.2 102680 100
2008-02-19 08:46:55 51°15.743 2°55.703 7.3 342 -1.2 102680 100
2008-02-19 08:47:00 51°15.746 2°55.711 7 281 -1.2 102690 100
2008-02-19 08:47:05 51°15.749 2°55.719 7.2 341 -1.2 102690 100
2008-02-19 08:47:10 51°15.751 2°55.726 6.8 282 -1.1 102690 100
2008-02-19 08:47:15 51°15.752 2°55.733 6.4 335 -1.1 102690 100
2008-02-19 08:47:20 51°15.753 2°55.738 7.2 280 -1.1 102690 100
2008-02-19 08:47:25 51°15.754 2°55.743 6.1 329 -1.1 102690 100
2008-02-19 08:47:30 51°15.754 2°55.748 6.1 280 -1.1 102690 100
2008-02-19 08:47:35 51°15.755 2°55.752 6.3 330 -1.1 102690 100
2008-02-19 08:47:40 51°15.755 2°55.756 6.9 286 -1.1 102690 100
2008-02-19 08:47:45 51°15.755 2°55.76 6.1 329 -1.1 102690 100
2008-02-19 08:47:50 51°15.755 2°55.765 6.8 281 -1.1 102690 100
2008-02-19 08:47:55 51°15.755 2°55.77 6.4 328 -1.1 102690 100
2008-02-19 08:48:00 51°15.755 2°55.775 6.7 280 -1.1 102690 100
2008-02-19 08:48:05 51°15.756 2°55.78 6.1 332 -1.1 102690 100
2008-02-19 08:48:10 51°15.756 2°55.786 6 288 -1.1 102690 100
2008-02-19 08:48:15 51°15.757 2°55.792 5.6 336 -1.1 102690 100
2008-02-19 08:48:20 51°15.759 2°55.797 7.2 281 -1.2 102690 100
2008-02-19 08:48:25 51°15.76 2°55.802 6.8 345 -1.2 102690 100
2008-02-19 08:48:30 51°15.762 2°55.807 6.6 281 -1.1 102690 100
2008-02-19 08:48:35 51°15.765 2°55.812 6.1 352 -1.1 102690 100
2008-02-19 08:48:40 51°15.767 2°55.816 6 354 -1.1 102690 100
2008-02-19 08:48:45 51°15.77 2°55.819 6.1 353 -1.1 102690 100
2008-02-19 08:48:50 51°15.772 2°55.823 6.3 357 -1.1 102690 100
2008-02-19 08:48:55 51°15.776 2°55.825 5.5 359 -1.1 102690 100
2008-02-19 08:49:00 51°15.778 2°55.827 5.1 1 -1.1 102690 100
2008-02-19 08:49:05 51°15.781 2°55.829 4.7 2 -1.1 102690 100
2008-02-19 08:49:10 51°15.785 2°55.831 6.3 10 -1.1 102680 100
2008-02-19 08:49:15 51°15.788 2°55.833 6.5 9 -1.1 102680 100
2008-02-19 08:49:20 51°15.792 2°55.834 5.6 7 -1.1 102680 100
2008-02-19 08:49:25 51°15.795 2°55.835 5.8 10 -1.1 102680 100
2008-02-19 08:49:30 51°15.799 2°55.836 6.2 11 -1 102690 100
2008-02-19 08:49:35 51°15.802 2°55.837 5.3 13 -1 102690 100
2008-02-19 08:49:40 51°15.804 2°55.837 5.5 13 -1 102690 100
2008-02-19 08:49:45 51°15.806 2°55.838 5.5 11 -1 102690 100
2008-02-19 08:49:50 51°15.807 2°55.837 5.1 10 -1 102690 100
2008-02-19 08:49:55 51°15.808 2°55.837 4.4 8 -1 102690 100
2008-02-19 08:50:00 51°15.808 2°55.836 4 8 -1.1 102690 100
2008-02-19 08:50:05 51°15.808 2°55.836 4.3 9 -1.1 102690 100
2008-02-19 08:50:10 51°15.808 2°55.835 3.8 10 -1.1 102690 100
2008-02-19 08:50:15 51°15.808 2°55.835 4.2 8 -1.1 102690 100
2008-02-19 08:50:20 51°15.808 2°55.835 4.8 14 -1.1 102690 100
2008-02-19 08:50:25 51°15.808 2°55.834 4.9 14 -1.1 102690 100
2008-02-19 08:50:30 51°15.809 2°55.833 4.9 15 -1 102690 100
2008-02-19 08:50:35 51°15.809 2°55.833 4.8 10 -1 102690 100
2008-02-19 08:50:40 51°15.809 2°55.832 4.7 12 -1 102690 100
2008-02-19 08:50:45 51°15.809 2°55.832 4.3 13 -1 102690 100
2008-02-19 08:50:50 51°15.809 2°55.831 4.2 14 -1 102690 100
2008-02-19 08:50:55 51°15.809 2°55.831 4.5 15 -1 102690 100
2008-02-19 08:51:00 51°15.809 2°55.83 5.2 7 -1 102690 100
2008-02-19 08:51:05 51°15.809 2°55.83 4.7 14 -1 102690 100
2008-02-19 08:51:10 51°15.809 2°55.829 4.8 16 -1 102690 100
2008-02-19 08:51:15 51°15.809 2°55.829 5.1 18 -1 102690 100
2008-02-19 08:51:20 51°15.809 2°55.828 4.9 20 -1 102690 100
2008-02-19 08:51:25 51°15.81 2°55.828 4.5 19 -1 102690 100
2008-02-19 08:51:30 51°15.81 2°55.827 4.2 20 -1 102690 100
2008-02-19 08:51:35 51°15.81 2°55.827 4.3 24 -1 102690 100
2008-02-19 08:51:40 51°15.81 2°55.826 4 18 -1 102690 100
2008-02-19 08:51:46 51°15.81 2°55.825 4.5 22 -1 102690 100
2008-02-19 08:51:50 51°15.81 2°55.825 4.9 20 -1 102690 100
2008-02-19 08:51:55 51°15.81 2°55.824 4.8 26 -1 102690 100
2008-02-19 08:52:00 51°15.81 2°55.823 5.3 28 -1 102690 100
2008-02-19 08:52:05 51°15.81 2°55.823 5.5 23 -1 102690 100
2008-02-19 08:52:10 51°15.81 2°55.822 4.6 24 -1 102690 100
2008-02-19 08:52:15 51°15.811 2°55.821 5 24 -1 102690 100
2008-02-19 08:52:20 51°15.811 2°55.82 4.9 24 -0.9 102690 100
2008-02-19 08:52:25 51°15.811 2°55.82 4.9 24 -0.9 102690 100
2008-02-19 08:52:30 51°15.811 2°55.819 5.1 23 -0.9 102690 100
2008-02-19 08:52:35 51°15.811 2°55.818 5.8 24 -0.9 102690 100
2008-02-19 08:52:40 51°15.811 2°55.818 5.9 26 -0.9 102690 100
2008-02-19 08:52:45 51°15.811 2°55.817 5.8 28 -0.9 102690 100
2008-02-19 08:52:50 51°15.811 2°55.816 6 24 -0.9 102680 100
2008-02-19 08:52:55 51°15.811 2°55.815 5.7 25 -0.9 102680 100
2008-02-19 08:53:00 51°15.811 2°55.814 5.7 25 -0.9 102690 100
2008-02-19 08:53:05 51°15.811 2°55.813 5.6 25 -0.9 102690 100
2008-02-19 08:53:10 51°15.811 2°55.812 5.4 24 -0.9 102680 100
2008-02-19 08:53:15 51°15.811 2°55.811 6.2 29 -0.9 102680 100
2008-02-19 08:53:20 51°15.811 2°55.811 5.4 27 -0.9 102680 100
2008-02-19 08:53:25 51°15.811 2°55.81 5.5 28 -0.9 102680 100
2008-02-19 08:53:30 51°15.811 2°55.809 5.2 28 -0.9 102680 100
2008-02-19 08:53:35 51°15.811 2°55.808 4.9 30 -0.9 102680 100
2008-02-19 08:53:40 51°15.811 2°55.807 4.8 29 -0.9 102680 100
2008-02-19 08:53:45 51°15.811 2°55.806 4.9 30 -0.9 102680 100
2008-02-19 08:53:50 51°15.811 2°55.805 4.6 31 -0.9 102680 100
2008-02-19 08:53:55 51°15.812 2°55.804 4.7 25 -0.9 102680 100
2008-02-19 08:54:00 51°15.812 2°55.803 5.5 24 -0.9 102680 100
2008-02-19 08:54:05 51°15.812 2°55.803 5.2 22 -0.9 102680 100
2008-02-19 08:54:10 51°15.812 2°55.802 6.1 27 -0.9 102680 100
2008-02-19 08:54:15 51°15.812 2°55.801 5.9 24 -0.9 102680 100
2008-02-19 08:54:20 51°15.812 2°55.8 6.4 25 -0.9 102680 100
2008-02-19 08:54:25 51°15.812 2°55.799 5.9 24 -0.9 102680 100
2008-02-19 08:54:30 51°15.813 2°55.798 5.7 25 -0.9 102680 100
2008-02-19 08:54:35 51°15.813 2°55.797 5.9 23 -0.9 102680 100
2008-02-19 08:54:40 51°15.813 2°55.796 5.6 24 -0.9 102680 100
2008-02-19 08:54:45 51°15.813 2°55.795 5.9 24 -0.9 102680 100
2008-02-19 08:54:50 51°15.813 2°55.794 5.8 25 -0.8 102680 100
2008-02-19 08:54:55 51°15.814 2°55.794 5.8 24 -0.8 102680 100
2008-02-19 08:55:00 51°15.814 2°55.793 5.2 23 -0.8 102680 100
2008-02-19 08:55:05 51°15.814 2°55.792 5.1 22 -0.8 102680 100
2008-02-19 08:55:10 51°15.814 2°55.791 5 24 -0.9 102680 100
2008-02-19 08:55:15 51°15.815 2°55.79 5.1 21 -0.9 102680 100
2008-02-19 08:55:20 51°15.815 2°55.789 5.4 24 -0.9 102680 100
2008-02-19 08:55:25 51°15.815 2°55.789 5.2 22 -0.9 102680 100
2008-02-19 08:55:30 51°15.816 2°55.788 5.2 22 -0.9 102680 100
2008-02-19 08:55:35 51°15.816 2°55.787 5.4 23 -0.9 102680 100
2008-02-19 08:55:40 51°15.816 2°55.786 5 24 -0.9 102680 100
2008-02-19 08:55:45 51°15.816 2°55.785 5.2 23 -0.9 102680 100
2008-02-19 08:55:50 51°15.817 2°55.785 5.2 25 -0.9 102690 100
2008-02-19 08:55:55 51°15.817 2°55.784 5.9 22 -0.9 102690 100
2008-02-19 08:56:00 51°15.818 2°55.783 5.8 24 -1 102680 100
2008-02-19 08:56:05 51°15.818 2°55.783 6.1 22 -1 102680 100
2008-02-19 08:56:10 51°15.819 2°55.782 6 18 -0.9 102680 100
2008-02-19 08:56:15 51°15.819 2°55.781 5.6 21 -0.9 102680 100
2008-02-19 08:56:20 51°15.82 2°55.781 5.9 18 -0.9 102680 100
2008-02-19 08:56:25 51°15.82 2°55.78 6 21 -0.9 102680 100
2008-02-19 08:56:30 51°15.82 2°55.78 5.5 23 -0.9 102680 100
2008-02-19 08:56:35 51°15.821 2°55.779 5.5 23 -0.9 102680 100
2008-02-19 08:56:40 51°15.822 2°55.778 5.8 19 -0.9 102680 100
2008-02-19 08:56:45 51°15.822 2°55.778 5.6 21 -0.9 102680 100
2008-02-19 08:56:50 51°15.823 2°55.778 5.4 19 -0.9 102680 100
2008-02-19 08:56:55 51°15.823 2°55.777 5.9 19 -0.9 102680 100
2008-02-19 08:57:00 51°15.824 2°55.776 5.5 19 -0.9 102680 100
2008-02-19 08:57:05 51°15.824 2°55.776 5.2 18 -0.9 102680 100
2008-02-19 08:57:10 51°15.825 2°55.775 5 17 -0.9 102680 100
2008-02-19 08:57:15 51°15.826 2°55.775 4.9 17 -0.9 102680 100
2008-02-19 08:57:20 51°15.826 2°55.775 5.1 17 -0.9 102680 100
2008-02-19 08:57:25 51°15.827 2°55.775 5 21 -0.9 102680 100
2008-02-19 08:57:30 51°15.827 2°55.774 5.3 13 -0.9 102680 100
2008-02-19 08:57:35 51°15.828 2°55.774 5.1 12 -0.9 102680 100
2008-02-19 08:57:40 51°15.828 2°55.773 4.9 18 -0.9 102680 100
2008-02-19 08:57:45 51°15.829 2°55.773 4.8 15 -0.9 102680 100
2008-02-19 08:57:50 51°15.829 2°55.772 5 17 -0.9 102680 100
2008-02-19 08:57:55 51°15.83 2°55.772 6 11 -0.9 102680 100
2008-02-19 08:58:00 51°15.83 2°55.771 5.2 12 -0.9 102680 100
2008-02-19 08:58:05 51°15.831 2°55.771 5.3 10 -0.9 102680 100
2008-02-19 08:58:10 51°15.831 2°55.771 5.4 11 -0.9 102680 100
2008-02-19 08:58:15 51°15.832 2°55.771 5.1 10 -0.9 102680 100
2008-02-19 08:58:20 51°15.833 2°55.771 5 14 -0.9 102680 100
2008-02-19 08:58:25 51°15.834 2°55.771 4.9 10 -0.9 102680 100
2008-02-19 08:58:30 51°15.834 2°55.771 4.2 15 -0.9 102680 100
2008-02-19 08:58:35 51°15.835 2°55.771 4.8 14 -0.9 102680 100
2008-02-19 08:58:40 51°15.835 2°55.771 4.5 13 -0.8 102670 100
2008-02-19 08:58:45 51°15.836 2°55.77 6 13 -0.8 102670 100
2008-02-19 08:58:50 51°15.837 2°55.77 4.6 11 -0.8 102680 100
2008-02-19 08:58:55 51°15.837 2°55.77 6.4 11 -0.8 102680 100
2008-02-19 08:59:00 51°15.838 2°55.771 5.1 6 -0.8 102680 100
2008-02-19 08:59:05 51°15.839 2°55.771 5.2 4 -0.8 102680 100
2008-02-19 08:59:10 51°15.839 2°55.771 4.1 6 -0.8 102680 100
2008-02-19 08:59:15 51°15.84 2°55.77 4.4 7 -0.8 102680 100
2008-02-19 08:59:20 51°15.84 2°55.77 4.5 7 -0.8 102680 100
2008-02-19 08:59:25 51°15.841 2°55.77 5 5 -0.8 102680 100
2008-02-19 08:59:30 51°15.842 2°55.77 5.3 3 -0.8 102680 100
2008-02-19 08:59:35 51°15.842 2°55.77 5.3 3 -0.8 102680 100
2008-02-19 08:59:40 51°15.843 2°55.77 5.1 1 -0.8 102680 100
2008-02-19 08:59:45 51°15.844 2°55.77 4.5 3 -0.8 102680 100
2008-02-19 08:59:50 51°15.844 2°55.77 5.1 4 -0.8 102680 100
2008-02-19 08:59:55 51°15.845 2°55.77 5 3 -0.8 102680 100
2008-02-19 09:00:00 51°15.846 2°55.77 4.6 5 -0.8 102680 100
2008-02-19 09:00:05 51°15.846 2°55.77 4.8 3 -0.8 102680 100
2008-02-19 09:00:10 51°15.847 2°55.77 5.3 1 -0.9 102680 100
2008-02-19 09:00:15 51°15.848 2°55.771 5.2 357 -0.9 102680 100
2008-02-19 09:00:20 51°15.849 2°55.771 5.1 357 -0.9 102680 100
2008-02-19 09:00:25 51°15.851 2°55.772 5 356 -0.9 102680 100
2008-02-19 09:00:30 51°15.852 2°55.773 4.5 353 -0.9 102680 100
2008-02-19 09:00:35 51°15.854 2°55.774 5.5 351 -0.9 102680 100
2008-02-19 09:00:40 51°15.855 2°55.776 5 348 -0.9 102680 100
2008-02-19 09:00:45 51°15.857 2°55.778 6.1 350 -0.9 102680 100
2008-02-19 09:00:50 51°15.859 2°55.78 6.1 350 -0.9 102680 100
2008-02-19 09:00:55 51°15.861 2°55.782 5 346 -0.9 102680 100
2008-02-19 09:01:00 51°15.862 2°55.785 5 285 -0.9 102670 100
2008-02-19 09:01:05 51°15.864 2°55.788 5.7 341 -0.9 102670 100
2008-02-19 09:01:10 51°15.866 2°55.792 6 282 -0.9 102680 100
2008-02-19 09:01:15 51°15.867 2°55.796 6.2 337 -0.9 102680 100
2008-02-19 09:01:20 51°15.868 2°55.801 5.8 281 -0.9 102680 100
2008-02-19 09:01:25 51°15.87 2°55.806 5.5 336 -0.9 102680 100
2008-02-19 09:01:30 51°15.871 2°55.811 5.6 281 -0.9 102680 100
2008-02-19 09:01:35 51°15.871 2°55.817 5.9 332 -0.9 102680 100
2008-02-19 09:01:40 51°15.872 2°55.823 6.5 280 -0.9 102680 100
2008-02-19 09:01:45 51°15.872 2°55.829 5.4 332 -0.9 102680 100
2008-02-19 09:01:50 51°15.872 2°55.835 5.5 331 -0.9 102680 100
2008-02-19 09:01:55 51°15.872 2°55.842 6.3 328 -0.9 102680 100
2008-02-19 09:02:00 51°15.871 2°55.849 6.8 281 -0.9 102680 100
2008-02-19 09:02:05 51°15.871 2°55.856 6.1 331 -0.9 102680 100
2008-02-19 09:02:10 51°15.871 2°55.864 6.9 286 -0.9 102670 100
2008-02-19 09:02:15 51°15.871 2°55.872 6.1 329 -0.9 102670 100
2008-02-19 09:02:20 51°15.87 2°55.88 6.8 285 -0.9 102680 100
2008-02-19 09:02:25 51°15.87 2°55.888 6.7 329 -0.9 102680 100
2008-02-19 09:02:30 51°15.87 2°55.897 7 284 -0.9 102670 100
2008-02-19 09:02:35 51°15.87 2°55.906 6.3 333 -0.9 102670 100
2008-02-19 09:02:40 51°15.87 2°55.915 6.4 282 -0.9 102670 100
2008-02-19 09:02:46 51°15.871 2°55.926 6.1 334 -0.9 102670 100
2008-02-19 09:02:50 51°15.871 2°55.933 7 333 -0.9 102670 100
2008-02-19 09:02:55 51°15.872 2°55.942 5.9 333 -0.9 102670 100
2008-02-19 09:03:00 51°15.873 2°55.951 6.3 284 -0.9 102670 100
2008-02-19 09:03:05 51°15.875 2°55.959 6.8 332 -0.9 102670 100
2008-02-19 09:03:10 51°15.877 2°55.968 7.2 285 -0.9 102670 100
2008-02-19 09:03:15 51°15.879 2°55.976 6.6 333 -0.9 102670 100
2008-02-19 09:03:20 51°15.881 2°55.983 6.5 286 -0.9 102680 100
2008-02-19 09:03:25 51°15.882 2°55.99 7 333 -0.9 102680 100
2008-02-19 09:03:30 51°15.884 2°55.997 6.8 288 -0.8 102680 100
2008-02-19 09:03:35 51°15.886 2°56.004 6.1 334 -0.8 102680 100
2008-02-19 09:03:40 51°15.888 2°56.01 6.2 283 -0.8 102680 100
2008-02-19 09:03:45 51°15.889 2°56.017 5.7 333 -0.8 102680 100
2008-02-19 09:03:50 51°15.891 2°56.022 5.7 334 -0.8 102680 100
2008-02-19 09:03:55 51°15.893 2°56.028 5.5 334 -0.8 102680 100
2008-02-19 09:04:00 51°15.894 2°56.033 5 284 -0.9 102680 100
2008-02-19 09:04:05 51°15.895 2°56.037 5.8 334 -0.9 102680 100
2008-02-19 09:04:10 51°15.897 2°56.042 6.4 281 -0.9 102680 100
2008-02-19 09:04:15 51°15.898 2°56.045 6 339 -0.9 102680 100
2008-02-19 09:04:20 51°15.899 2°56.049 5.8 282 -0.9 102680 100
2008-02-19 09:04:25 51°15.9 2°56.052 5.9 340 -0.9 102680 100
2008-02-19 09:04:30 51°15.9 2°56.055 5.7 286 -0.9 102680 100
2008-02-19 09:04:35 51°15.901 2°56.058 4.9 337 -0.9 102680 100
2008-02-19 09:04:40 51°15.901 2°56.061 4.7 281 -0.9 102680 100
2008-02-19 09:04:45 51°15.902 2°56.063 5.2 335 -0.9 102680 100
2008-02-19 09:04:50 51°15.902 2°56.065 4.9 335 -0.9 102680 100
2008-02-19 09:04:55 51°15.903 2°56.067 4.5 335 -0.9 102680 100
2008-02-19 09:05:00 51°15.903 2°56.069 5.2 281 -0.9 102680 100
2008-02-19 09:05:05 51°15.903 2°56.071 5.4 333 -0.9 102680 100
2008-02-19 09:05:10 51°15.904 2°56.073 5.4 282 -0.9 102680 100
2008-02-19 09:05:15 51°15.904 2°56.075 5.9 332 -0.9 102680 100
2008-02-19 09:05:20 51°15.904 2°56.077 6.6 286 -0.9 102680 100
2008-02-19 09:05:25 51°15.904 2°56.079 6 326 -0.9 102680 100
2008-02-19 09:05:30 51°15.905 2°56.081 7.1 282 -0.9 102680 100
2008-02-19 09:05:35 51°15.905 2°56.082 6.1 326 -0.9 102680 100
2008-02-19 09:05:40 51°15.905 2°56.084 5.7 284 -0.9 102680 100
2008-02-19 09:05:45 51°15.905 2°56.086 5.3 327 -0.9 102680 100
2008-02-19 09:05:50 51°15.905 2°56.088 5.5 327 -0.9 102680 100
2008-02-19 09:05:55 51°15.905 2°56.089 5.4 326 -0.9 102680 100
2008-02-19 09:06:00 51°15.905 2°56.091 4.8 282 -0.9 102680 100
2008-02-19 09:06:05 51°15.905 2°56.093 4.5 323 -0.9 102680 100
2008-02-19 09:06:10 51°15.905 2°56.094 4.4 286 -0.9 102680 100
2008-02-19 09:06:15 51°15.905 2°56.096 5.1 322 -0.9 102680 100
2008-02-19 09:06:20 51°15.905 2°56.097 4.6 285 -0.9 102680 100
2008-02-19 09:06:25 51°15.905 2°56.099 4.5 322 -0.9 102680 100
2008-02-19 09:06:30 51°15.905 2°56.1 5 282 -0.9 102680 100
2008-02-19 09:06:35 51°15.904 2°56.102 5.7 318 -0.9 102680 100
2008-02-19 09:06:40 51°15.904 2°56.103 4.4 281 -0.9 102680 100
2008-02-19 09:06:45 51°15.904 2°56.105 5.1 321 -0.9 102680 100
2008-02-19 09:06:50 51°15.903 2°56.106 5.6 326 -0.9 102680 100
2008-02-19 09:06:55 51°15.903 2°56.108 5.9 328 -0.9 102680 100
2008-02-19 09:07:00 51°15.903 2°56.109 5.5 284 -0.9 102680 100
2008-02-19 09:07:05 51°15.903 2°56.11 5.1 327 -0.9 102680 100
2008-02-19 09:07:10 51°15.903 2°56.112 5.1 285 -0.9 102680 100
2008-02-19 09:07:15 51°15.903 2°56.113 4.7 325 -0.9 102680 100
2008-02-19 09:07:20 51°15.902 2°56.115 5.4 281 -0.9 102680 100
2008-02-19 09:07:25 51°15.902 2°56.116 4.9 325 -0.9 102680 100
2008-02-19 09:07:30 51°15.902 2°56.117 4.8 281 -0.9 102680 100
2008-02-19 09:07:35 51°15.902 2°56.119 4.5 326 -0.9 102680 100
2008-02-19 09:07:40 51°15.902 2°56.12 4.4 282 -0.9 102680 100
2008-02-19 09:07:45 51°15.902 2°56.121 5 327 -0.9 102680 100
2008-02-19 09:07:50 51°15.901 2°56.123 4.7 325 -0.9 102670 100
2008-02-19 09:07:55 51°15.901 2°56.124 4.7 327 -0.9 102670 100
2008-02-19 09:08:00 51°15.901 2°56.125 4.3 285 -0.9 102670 100
2008-02-19 09:08:05 51°15.901 2°56.127 4.7 324 -0.9 102670 100
2008-02-19 09:08:10 51°15.901 2°56.128 4.4 283 -0.9 102680 100
2008-02-19 09:08:15 51°15.901 2°56.129 4.9 324 -0.9 102680 100
2008-02-19 09:08:20 51°15.9 2°56.13 4.6 282 -0.9 102670 100
2008-02-19 09:08:25 51°15.9 2°56.131 3.9 323 -0.9 102670 100
2008-02-19 09:08:30 51°15.9 2°56.133 4.8 282 -0.9 102670 100
2008-02-19 09:08:35 51°15.9 2°56.134 3.8 324 -0.9 102670 100
2008-02-19 09:08:40 51°15.9 2°56.135 4.6 282 -0.9 102670 100
2008-02-19 09:08:45 51°15.9 2°56.136 4.4 323 -0.9 102670 100
2008-02-19 09:08:50 51°15.9 2°56.137 5.1 324 -0.9 102670 100
2008-02-19 09:08:55 51°15.9 2°56.139 5.4 324 -0.9 102670 100
2008-02-19 09:09:00 51°15.899 2°56.14 4.6 285 -0.9 102670 100
2008-02-19 09:09:05 51°15.899 2°56.141 5.1 326 -0.9 102670 100
2008-02-19 09:09:10 51°15.899 2°56.142 5.2 287 -0.9 102670 100
2008-02-19 09:09:15 51°15.899 2°56.143 5 322 -0.9 102670 100
2008-02-19 09:09:20 51°15.899 2°56.144 5.7 283 -0.9 102670 100
2008-02-19 09:09:25 51°15.899 2°56.145 4.7 322 -0.9 102670 100
2008-02-19 09:09:30 51°15.898 2°56.147 4.4 281 -0.8 102670 100
2008-02-19 09:09:35 51°15.898 2°56.148 4.4 320 -0.8 102670 100
2008-02-19 09:09:40 51°15.898 2°56.149 5 286 -0.8 102680 100
2008-02-19 09:09:46 51°15.898 2°56.15 4.6 321 -0.8 102680 100
2008-02-19 09:09:50 51°15.898 2°56.151 5.6 317 -0.8 102670 100
2008-02-19 09:09:55 51°15.898 2°56.152 6 320 -0.8 102670 100
2008-02-19 09:10:00 51°15.897 2°56.153 6.4 280 -0.8 102670 100
2008-02-19 09:10:05 51°15.897 2°56.154 5.7 321 -0.8 102670 100
2008-02-19 09:10:10 51°15.897 2°56.155 6.1 284 -0.8 102670 100
2008-02-19 09:10:15 51°15.897 2°56.156 4.9 322 -0.8 102670 100
2008-02-19 09:10:20 51°15.897 2°56.157 5.8 281 -0.8 102670 100
2008-02-19 09:10:25 51°15.897 2°56.158 5.7 321 -0.8 102670 100
2008-02-19 09:10:30 51°15.897 2°56.159 5.2 286 -0.7 102670 100
2008-02-19 09:10:35 51°15.896 2°56.16 6.1 320 -0.7 102670 100
2008-02-19 09:10:40 51°15.896 2°56.161 5 284 -0.7 102670 100
2008-02-19 09:10:45 51°15.896 2°56.162 4.9 319 -0.7 102670 100
2008-02-19 09:10:50 51°15.896 2°56.163 5.5 318 -0.7 102680 100
2008-02-19 09:10:55 51°15.895 2°56.164 4.8 320 -0.7 102680 100
2008-02-19 09:11:00 51°15.895 2°56.165 4.6 280 -0.7 102670 100
2008-02-19 09:11:05 51°15.895 2°56.166 6.1 325 -0.7 102670 100
2008-02-19 09:11:10 51°15.895 2°56.167 5.6 280 -0.7 102680 100
2008-02-19 09:11:15 51°15.895 2°56.168 5.3 321 -0.7 102680 100
2008-02-19 09:11:20 51°15.894 2°56.168 5.5 280 -0.7 102670 100
2008-02-19 09:11:25 51°15.894 2°56.169 4.4 323 -0.7 102670 100
2008-02-19 09:11:30 51°15.894 2°56.17 4.1 280 -0.7 102680 100
2008-02-19 09:11:35 51°15.894 2°56.171 4.9 324 -0.7 102680 100
2008-02-19 09:11:40 51°15.894 2°56.172 4.5 286 -0.7 102670 100
2008-02-19 09:11:45 51°15.894 2°56.173 5.5 321 -0.7 102670 100
2008-02-19 09:11:50 51°15.893 2°56.173 5 320 -0.7 102660 100
2008-02-19 09:11:55 51°15.893 2°56.174 5.1 323 -0.7 102660 100
2008-02-19 09:12:00 51°15.893 2°56.175 5.5 285 -0.8 102670 100
2008-02-19 09:12:06 51°15.893 2°56.176 4.8 322 -0.8 102670 100
2008-02-19 09:12:10 51°15.892 2°56.177 3.3 282 -0.8 102670 100
2008-02-19 09:12:15 51°15.892 2°56.178 5.1 323 -0.8 102670 100
2008-02-19 09:12:20 51°15.892 2°56.178 5.4 285 -0.8 102670 100
2008-02-19 09:12:25 51°15.892 2°56.179 4.2 320 -0.8 102670 100
2008-02-19 09:12:30 51°15.892 2°56.18 4.7 285 -0.8 102670 100
2008-02-19 09:12:35 51°15.892 2°56.181 4.6 321 -0.8 102670 100
2008-02-19 09:12:40 51°15.891 2°56.182 4.7 287 -0.8 102670 100
2008-02-19 09:12:45 51°15.891 2°56.183 5.4 324 -0.8 102670 100
2008-02-19 09:12:50 51°15.891 2°56.183 5.5 326 -0.8 102670 100
2008-02-19 09:12:55 51°15.891 2°56.184 5 326 -0.8 102670 100
2008-02-19 09:13:00 51°15.891 2°56.185 5.5 284 -0.8 102670 100
2008-02-19 09:13:05 51°15.891 2°56.186 5.9 323 -0.8 102670 100
2008-02-19 09:13:10 51°15.891 2°56.187 4.5 282 -0.8 102670 100
2008-02-19 09:13:15 51°15.891 2°56.188 5.6 321 -0.8 102670 100
2008-02-19 09:13:20 51°15.891 2°56.189 5 285 -0.8 102670 100
2008-02-19 09:13:25 51°15.891 2°56.19 4.7 323 -0.8 102670 100
2008-02-19 09:13:30 51°15.89 2°56.19 6.2 281 -0.8 102670 100
2008-02-19 09:13:35 51°15.89 2°56.191 5.3 320 -0.8 102670 100
2008-02-19 09:13:40 51°15.89 2°56.192 5.7 286 -0.8 102670 100
2008-02-19 09:13:46 51°15.89 2°56.193 5.8 316 -0.8 102670 100
2008-02-19 09:13:50 51°15.889 2°56.193 5.5 319 -0.8 102670 100
2008-02-19 09:13:55 51°15.889 2°56.194 5 316 -0.8 102670 100
2008-02-19 09:14:00 51°15.889 2°56.195 4.9 286 -0.8 102660 100
2008-02-19 09:14:05 51°15.889 2°56.195 4.7 33 -0.8 102660 100
2008-02-19 09:14:10 51°15.889 2°56.196 4.4 282 -0.8 102670 100
2008-02-19 09:14:15 51°15.888 2°56.197 4.3 36 -0.8 102670 100
2008-02-19 09:14:20 51°15.888 2°56.197 5.1 280 -0.8 102670 100
2008-02-19 09:14:26 51°15.888 2°56.198 4.8 318 -0.8 102670 100
2008-02-19 09:14:30 51°15.888 2°56.199 5 281 -0.8 102670 100
2008-02-19 09:14:35 51°15.888 2°56.2 4.8 322 -0.8 102670 100
2008-02-19 09:14:40 51°15.888 2°56.2 4.7 286 -0.8 102660 100